SES-19

Last updated on Thu Oct 30 2025 00:02:52 GMT+0000 (Coordinated Universal Time)

1 55971U 23038B 25302.52261796 .00000097 00000+0 00000+0 0 9997 2 55971 0.0112 309.3433 0001534 270.5088 231.5269 1.00273662 9768
UTC large
Height (km)
Speed (km/s)
/
Latitude / Longitude
Inclination (degrees)
Orbital Period (minutes)
Azimuth
Elevation
Range (km)
Doppler Factor

Next 0 passes for location: London (51.5072 / 0.1276)

Sorry there are no passes over London.